DW3838 Weather Reports


Display with metric or nautical units.
time (UTC)temp
F
wind
direction
speed
MPH
gust
MPH
rain 1hr
in
rain 24hr
in
rain mn
in
humidity
%
barometer
mb
20260906081543 52 277 0.0 0.0 0.00 0.01 0.00 90 1014.6
20260906080029 52 277 0.0 0.0 0.00 0.01 0.00 90 1014.5
20260906074532 52 277 0.0 0.0 0.00 0.01 0.00 90 1014.5
20260906073026 52 277 0.0 0.0 0.00 0.01 0.00 90 1014.6
20260906071525 52 277 0.0 0.0 0.00 0.01 0.00 90 1014.6
20260906070024 52 275 0.0 0.0 0.00 0.01 0.00 90 1014.6
20260906064523 53 275 0.0 0.0 0.00 0.01 0.01 90 1014.6
20260906063028 53 275 0.0 0.0 0.00 0.01 0.01 89 1014.5
20260906061533 53 275 0.0 0.0 0.00 0.01 0.01 88 1014.5
20260906060021 53 275 0.0 0.0 0.00 0.01 0.01 88 1014.5
20260906054521 54 275 0.0 0.0 0.00 0.01 0.01 87 1014.5
20260906053021 54 275 0.0 0.0 0.00 0.01 0.01 86 1014.5
20260906051521 55 275 0.0 0.0 0.00 0.01 0.01 85 1014.5
20260906050022 55 275 0.0 0.0 0.00 0.01 0.01 85 1014.5
20260906044527 55 275 0.0 0.0 0.00 0.01 0.01 84 1014.6
20260906043019 56 277 0.0 0.0 0.00 0.01 0.01 83 1014.5
20260906041519 56 277 0.0 0.0 0.00 0.01 0.01 81 1014.4
20260906040024 57 277 0.0 0.0 0.00 0.01 0.01 80 1014.3
20260906034518 58 265 0.0 0.0 0.00 0.01 0.01 78 1014.1
20260906033018 59 265 0.0 0.0 0.00 0.01 0.01 76 1014.1
20260906031532 59 188 0.0 1.0 0.00 0.01 0.01 74 1013.9
20260906030017 60 355 0.0 0.0 0.00 0.01 0.01 74 1014.0
20260906024516 61 355 0.0 2.0 0.00 0.01 0.01 69 1014.0
20260906023019 62 333 0.0 0.0 0.00 0.01 0.01 69 1014.0
20260906021515 63 252 0.0 0.0 0.00 0.01 0.01 68 1014.1
20260906020014 64 252 0.0 0.0 0.00 0.01 0.01 62 1014.1
20260906014513 65 167 0.0 1.0 0.00 0.01 0.01 61 1014.2
20260906013012 66 222 0.0 3.0 0.00 0.01 0.01 61 1014.1
20260906011515 66 219 0.0 6.0 0.00 0.01 0.01 59 1014.2
20260906010011 67 100 0.0 6.0 0.00 0.01 0.01 58 1014.1
20260906004510 68 217 0.0 8.0 0.00 0.01 0.01 57 1014.1
20260906003018 69 346 1.0 11.0 0.00 0.01 0.01 53 1014.2
20260906001509 71 344 2.0 9.0 0.00 0.01 0.01 51 1014.2
20260906000008 71 142 2.0 9.0 0.00 0.01 0.01 49 1014.2
20260905234509 72 53 1.0 10.0 0.00 0.01 0.01 52 1014.2
20260905233009 74 349 1.0 9.0 0.00 0.01 0.01 49 1014.1
20260905231506 74 144 1.0 10.0 0.00 0.01 0.01 45 1014.2
20260905230003 74 194 2.0 10.0 0.00 0.01 0.01 48 1014.5
20260905224503 75 172 0.0 7.0 0.00 0.01 0.01 48 1014.6
20260905223005 75 193 0.0 6.0 0.00 0.01 0.01 48 1014.8
20260905221505 75 190 3.0 9.0 0.00 0.01 0.01 45 1014.7
20260905220002 75 113 0.0 15.0 0.00 0.01 0.01 46 1014.7
20260905214501 76 279 4.0 9.0 0.00 0.01 0.01 43 1014.8
20260905213107 76 183 1.0 11.0 0.00 0.01 0.01 46 1014.7
20260905211558 74 161 2.0 9.0 0.00 0.01 0.01 45 1014.7
20260905210108 74 174 2.0 9.0 0.00 0.01 0.01 45 1014.9
20260905204553 74 171 1.0 8.0 0.00 0.01 0.01 50 1015.0
20260905203056 74 219 2.0 11.0 0.00 0.01 0.01 55 1014.9
20260905201602 74 170 2.0 9.0 0.00 0.01 0.01 52 1014.9
20260905200111 74 165 2.0 7.0 0.00 0.01 0.01 52 1014.9
20260905194550 74 205 0.0 5.0 0.00 0.01 0.01 55 1014.9
20260905193047 73 186 0.0 7.0 0.00 0.01 0.01 53 1015.0
20260905191546 73 235 1.0 9.0 0.00 0.01 0.01 59 1015.1
20260905190041 71 96 0.0 2.0 0.00 0.01 0.01 63 1015.2
20260905184539 70 209 0.0 6.0 0.00 0.01 0.01 64 1015.3
20260905183034 69 324 0.0 3.0 0.00 0.01 0.01 67 1015.4
20260905181531 68 225 0.0 6.0 0.00 0.01 0.01 70 1015.3
20260905180029 66 238 0.0 4.0 0.00 0.01 0.01 72 1015.4
20260905174523 65 146 0.0 5.0 0.00 0.01 0.01 74 1015.5
20260905173019 63 177 0.0 2.0 0.00 0.01 0.01 81 1015.5
20260905171533 61 193 0.0 1.0 0.00 0.01 0.01 87 1015.5
20260905170011 57 134 0.0 2.0 0.00 0.01 0.01 89 1015.5
20260905164507 55 132 0.0 3.0 0.00 0.01 0.01 92 1015.5
20260905163004 54 132 0.0 3.0 0.00 0.01 0.01 93 1015.4
20260905161501 53 132 0.0 3.0 0.00 0.01 0.01 93 1015.4
20260905160100 52 304 0.0 0.0 0.00 0.01 0.01 93 1015.4
20260905154600 51 304 0.0 0.0 0.00 0.01 0.01 93 1015.4
20260905153057 50 304 0.0 0.0 0.00 0.01 0.01 93 1015.2
20260905151556 50 304 0.0 0.0 0.00 0.01 0.01 93 1015.2
20260905150056 49 304 0.0 0.0 0.00 0.01 0.01 93 1015.1
20260905144557 49 304 0.0 0.0 0.01 0.01 0.01 93 1015.0
20260905143054 48 304 0.0 0.0 0.01 0.01 0.01 92 1015.0
20260905141552 48 304 0.0 0.0 0.01 0.01 0.01 92 1014.9
20260905140053 48 304 0.0 0.0 0.01 0.01 0.01 92 1014.8
20260905134556 48 299 0.0 0.0 0.00 0.00 0.00 92 1014.7
20260905133051 48 299 0.0 0.0 0.00 0.00 0.00 92 1014.7
20260905131551 48 299 0.0 0.0 0.00 0.00 0.00 92 1014.6
20260905130048 48 299 0.0 0.0 0.00 0.00 0.00 92 1014.6
20260905124550 49 299 0.0 0.0 0.00 0.00 0.00 92 1014.5
20260905123046 48 299 0.0 0.0 0.00 0.00 0.00 92 1014.5
20260905121545 48 299 0.0 0.0 0.00 0.00 0.00 92 1014.5
20260905120045 49 299 0.0 0.0 0.00 0.00 0.00 92 1014.5
20260905114548 49 299 0.0 0.0 0.00 0.00 0.00 92 1014.6
20260905113043 49 299 0.0 0.0 0.00 0.00 0.00 91 1014.6
20260905111542 49 299 0.0 0.0 0.00 0.00 0.00 91 1014.6
20260905110039 49 299 0.0 0.0 0.00 0.00 0.00 91 1014.7
20260905103023 49 299 0.0 0.0 0.00 0.00 0.00 91 1014.7
20260905101531 50 299 0.0 0.0 0.00 0.00 0.00 91 1014.6
20260905100018 50 299 0.0 0.0 0.00 0.00 0.00 91 1014.5
20260905094518 50 299 0.0 0.0 0.00 0.00 0.00 91 1014.7
20260905093016 50 299 0.0 0.0 0.00 0.00 0.00 91 1014.8
20260905091514 50 299 0.0 0.0 0.00 0.00 0.00 91 1014.9
20260905090018 51 299 0.0 0.0 0.00 0.00 0.00 91 1014.9
20260905084517 51 299 0.0 0.0 0.00 0.00 0.00 91 1014.9
20260905083015 51 299 0.0 0.0 0.00 0.00 0.00 91 1015.0